Notices

What's New in latest Release from April 7th, 2021:

- Updated Glossary, including Speed of Maximum Gust, and Total Hourly Precipitation

- Updated national and regional climate services offices contacts and prices information

- Addition of station inventory lists for 1981-2010, 1971-2000, and 1961-1990 Normals.

If you haven't already, please take our survey and provide feedback about our website: https://eccc.sondage-survey.ca/f/LanguageSelection.aspx?s=442ca660-fcf1-47c0-95a9-59707d6fd709

Hourly Data Report for November 15, 2019

CARBERRY CS
MANITOBA
Current Station Operator: ECCC - MSC

49°54'20.900" N
99°21'26.800" W
383.50 m
5010547
71170
WZE

Download Data

Hourly Data (November 2019)
Hourly Data Report for November 15, 2019
TIME
LST
Temp Definition
°C
Dew Point Definition
°C
Rel Hum Definition
%
Precip. Amount Definition
mm

Wind Dir Definition
10's deg

Wind Spd Definition
km/h
Visibility Definition
km
Stn Press Definition
kPa
Hmdx Definition


Wind Chill Definition


Weather Definition


00:00 -8.2 -10.1 86 0.0 9 10   97.63   -13 LegendNANA
01:00 -8.3 -10.3 86 0.0 6 8   97.69   -12 LegendNANA
02:00 -7.1 -9.7 81 0.0 6 12   97.71   -12 LegendNANA
03:00 -7.4 -10.0 81 0.0 7 8   97.76   -11 LegendNANA
04:00 -9.3 -11.4 85 0.0 6 8   97.74   -14 LegendNANA
05:00 -9.4 -10.7 90 0.0 6 10   97.75   -15 LegendNANA
06:00 -8.0 -10.2 84 0.0 6 12   97.80   -13 LegendNANA
07:00 -7.6 -10.9 77 0.0 9 13   97.79   -13 LegendNANA
08:00 -7.0 -11.1 72 0.0 9 15   97.80   -13 LegendNANA
09:00 -6.8 -11.2 71 0.0 9 19   97.84   -14 LegendNANA
10:00 -6.4 -10.5 72 0.0 10 19   97.85   -13 LegendNANA
11:00 -6.0 -10.8 69 0.0 11 21   97.83   -13 LegendNANA
12:00 -5.3 -10.2 68 0.0 12 24   97.74   -13 LegendNANA
13:00 -4.6 -9.0 71 0.0 13 23   97.66   -12 LegendNANA
14:00 -4.0 -8.7 70 0.0 12 22   97.60   -11 LegendNANA
15:00 -3.6 -8.5 69 0.0 12 22   97.51   -10 LegendNANA
16:00 -3.3 -8.3 69 0.0 12 21   97.42   -10 LegendNANA
17:00 -3.3 -7.3 74 0.0 12 17   97.31   -9 LegendNANA
18:00 -2.9 -6.8 74 0.0 13 21   97.22   -9 LegendNANA
19:00 -3.1 -7.3 73 0.0 14 19   97.17   -9 LegendNANA
20:00 -2.4 -6.8 72 0.0 14 20   97.08   -8 LegendNANA
21:00 -2.3 -6.4 73 0.0 15 21   96.97   -8 LegendNANA
22:00 -1.8 -4.9 79 0.0 15 20   96.89   -8 LegendNANA
23:00 -0.7 -1.9 92 0.0 17 30   96.75   -7 LegendNANA

Notes on Data Quality.

Legend

  • E = Estimated
  • M = Missing
  • NA = Not Available*
  • [empty] = Indicates an unobserved value
Date modified: